Weather in Grishina Sloboda

Russia / Bryansk Oblast     53°35′08″N   33°48′01″E
temp.,
°C
wind,
m/s
gust,
m/s
humid.,
%
clouds,
%
prec.,
mm/h
press.,
hPa
HPBL,
m
4 march, thu
thu400:00−1w411870 0.0 1016354
03:00−1wsw5128643 0.0 1014408
06:00−1wsw5147965 0.0 1011518
09:00−1wsw5128333 0.0 1008635
12:00+1w588390 0.0 1006755
15:00+2w488495 0.0 1004869
18:000wnw41188100 0.0 1003668
21:000wnw3889100 0.0 1004446
5 march, fri
fri500:00−1nw3794100 0.1 1005408
03:00−2nnw2691100 0.1 1006258
06:00−4nnw249095 0.0 1008164
09:00−4nnw248488 0.0 1009230
12:00−2nnw347924 0.0 1010582
15:00−1nnw347045 0.0 1012785
18:00−3nnw237519 0.0 101288
21:00−4nw12819 0.0 101436
6 march, sat
sat600:00−5nw11820 0.0 101526
03:00−5wsw127927 0.0 101523
06:00−5w3694100 0.4 1015419
09:00−6wnw4784100 0.6 1017505
12:00−4nnw6983100 0.2 1018819
15:00−4nnw6865100 0.3 10191154
18:00−5nw477178 0.0 1019832
21:00−6w387839 0.0 1020368
7 march, sun
sun700:00−6sw411693 0.0 1019478
03:00−5sw6146324 0.0 1015681
06:00−4sw81666100 0.0 1011874
09:00−4wsw91789100 0.3 10061123
12:00−1wsw101879100 0.7 10031362
15:000wsw101883100 0.9 10011450
18:00−2nw61091100 2.8 1001877
21:00−4wnw5137485 3.3 1003901
8 march, mon
mon800:00−5w5128331 0.0 10041231
03:00−6wnw6137647 0.1 10051008
06:00−7wnw5118225 0.0 1006965
09:00−8nw597860 0.1 1009998
12:00−6nw577083 0.1 10101145
15:00−5nw476691 0.1 10111251
18:00−7nw487299 0.1 1013851
21:00−8nw489095 0.1 1015497